Weather History for Stillwater, OK

Change the Weather History Date:

Friday, March 15, 2013

  Actual Average Record
Temperature  
Mean Temperature 64 °F -  
Max Temperature 82 °F 57 °F 82 °F (2012)
Min Temperature 46 °F 35 °F 19 °F (1999)
Degree Days  
Heating Degree Days 1    
Growing Degree Days 14 (Base 50)    
Moisture  
Dew Point 41 °F    
Average Humidity 45    
Maximum Humidity 80    
Minimum Humidity 21    
Precipitation  
Precipitation 0.00 in - - ()
Sea Level Pressure  
Sea Level Pressure 29.88 in    
Wind  
Wind Speed 7 mph (SSW)    
Max Wind Speed 18 mph    
Max Gust Speed 23 mph    
Visibility 10 miles    
Events      
Averages and records for this station are not official NWS values.
T = Trace of Precipitation, MM = Missing Value Source: NWS Daily Summary

Daily Weather History Graph

Daily Weather History Graph

Search for Another Location

Airport:

Trip Planner

Search our weather history database for the weather conditions in past years. The results will help you decide how hot, cold, wet, or windy it might be!

Date:

Astronomy

Mar. 15, 2013 Rise Set
Actual Time 7:38 AM CDT 7:36 PM CDT
Civil Twilight 7:13 AM CDT 8:01 PM CDT
Nautical Twilight 6:43 AM CDT 8:31 PM CDT
Astronomical Twilight 6:13 AM CDT 9:01 PM CDT
Moon 9:37 AM CDT (3/15) 11:42 PM CDT (3/15)
Length of Visible Light 12h 48m
Length of Day
11h 57m
Waxing Crescent, 15% of the Moon is Illuminated
Mar 15
Waxing Crescent
Mar 19
First Quarter
Mar 27
Full
Apr 2
Last Quarter
Apr 10
New

Hourly Weather History & Observations

Time (CDT) Temp. Dew Point Humidity Pressure Visibility Wind Dir Wind Speed Gust Speed Precip Events Conditions
12:53 AM 55.0 °F 39.9 °F 57% 30.07 in 10.0 mi South 3.5 mph - N/A   Clear
1:53 AM 52.0 °F 39.9 °F 63% 30.06 in 10.0 mi South 5.8 mph - N/A   Clear
2:53 AM 55.9 °F 41.0 °F 57% 30.04 in 10.0 mi Calm Calm - N/A   Clear
3:53 AM 51.1 °F 41.0 °F 68% 30.01 in 10.0 mi SSE 4.6 mph - N/A   Clear
4:53 AM 48.0 °F 39.9 °F 74% 29.99 in 10.0 mi SE 3.5 mph - N/A   Clear
5:53 AM 48.0 °F 39.9 °F 74% 29.98 in 10.0 mi SE 3.5 mph - N/A   Clear
6:53 AM 46.9 °F 41.0 °F 80% 29.98 in 10.0 mi SE 5.8 mph - N/A   Clear
7:53 AM 48.9 °F 41.0 °F 74% 29.97 in 10.0 mi South 4.6 mph - N/A   Clear
8:53 AM 55.9 °F 45.0 °F 67% 29.95 in 10.0 mi South 4.6 mph - N/A   Clear
9:53 AM 64.9 °F 43.0 °F 45% 29.94 in 10.0 mi SSW 12.7 mph - N/A   Clear
10:53 AM 69.1 °F 41.0 °F 36% 29.93 in 10.0 mi SW 11.5 mph 19.6 mph N/A   Clear
11:53 AM 72.0 °F 41.0 °F 33% 29.92 in 10.0 mi WSW 11.5 mph - N/A   Clear
12:53 PM 75.0 °F 39.9 °F 28% 29.90 in 10.0 mi SW 11.5 mph - N/A   Clear
1:53 PM 79.0 °F 41.0 °F 26% 29.86 in 10.0 mi SW 12.7 mph - N/A   Clear
2:53 PM 81.0 °F 41.0 °F 24% 29.81 in 10.0 mi SW 13.8 mph - N/A   Clear
3:53 PM 82.0 °F 41.0 °F 23% 29.79 in 10.0 mi SW 13.8 mph - N/A   Clear
4:53 PM 81.0 °F 39.9 °F 23% 29.78 in 10.0 mi SSW 18.4 mph - N/A   Clear
5:53 PM 82.9 °F 39.0 °F 21% 29.75 in 10.0 mi SW 17.3 mph - N/A   Clear
6:53 PM 80.1 °F 41.0 °F 25% 29.74 in 10.0 mi SSW 13.8 mph 23.0 mph N/A   Clear
7:53 PM 75.0 °F 41.0 °F 29% 29.74 in 10.0 mi SSW 10.4 mph - N/A   Clear
8:53 PM 68.0 °F 43.0 °F 40% 29.74 in 10.0 mi South 9.2 mph - N/A   Clear
9:53 PM 64.9 °F 43.0 °F 45% 29.73 in 10.0 mi South 8.1 mph - N/A   Clear
10:53 PM 68.0 °F 43.0 °F 40% 29.73 in 10.0 mi South 5.8 mph - N/A   Clear
11:53 PM 68.0 °F 43.0 °F 40% 29.72 in 10.0 mi SSW 5.8 mph - N/A   Clear